San Antonio, TX

5:27 AM CDT on May 24, 2017 (GMT -0500)
San Antonio International

Weather History for KSAT - October, 2011

Change the Weather History Date:

Thursday, October 27, 2011

  Actual Average Record
Temperature  
Mean Temperature 69 °F 68 °F  
Max Temperature 85 °F 79 °F 91 °F (1980)
Min Temperature 53 °F 57 °F 34 °F (1957)
Degree Days  
Heating Degree Days 0 2  
Month to date heating degree days 6 20  
Since 1 July heating degree days 6 22  
Cooling Degree Days 4 5  
Month to date cooling degree days 229 201  
Year to date cooling degree days 3887 3035  
Growing Degree Days 18 (Base 50)    
Moisture  
Dew Point 58 °F    
Average Humidity 61    
Maximum Humidity 87    
Minimum Humidity 34    
Precipitation  
Precipitation 0.00 in 0.11 in 1.08 in (1899)
Month to date precipitation 3.28 3.66  
Year to date precipitation 12.93 27.63  
Snow  
Snow 0.00 in - - ()
Month to date snowfall 0.0  
Since 1 July snowfall 0.0  
Since 1 September snowfall 0.0  
Snow Depth 0.00 in    
Sea Level Pressure  
Sea Level Pressure 29.85 in    
Wind  
Wind Speed 13 mph (East)    
Max Wind Speed 29 mph    
Max Gust Speed 40 mph    
Visibility 10 miles    
Events      
T = Trace of Precipitation, MM = Missing Value Source: NWS Daily Summary

Daily Weather History Graph

Daily Weather History Graph

Search for Another Location

Airport or City:

Trip Planner

Search our weather history database for the weather conditions in past years. The results will help you decide how hot, cold, wet, or windy it might be!

Date:

Astronomy

Oct. 27, 2011 Rise Set
Actual Time 7:43 AM CDT 6:51 PM CDT
Civil Twilight 7:18 AM CDT 7:16 PM CDT
Nautical Twilight 6:50 AM CDT 7:44 PM CDT
Astronomical Twilight 6:23 AM CDT 8:11 PM CDT
Moon 8:39 AM CDT (10/27) 7:32 PM CDT (10/27)
Length of Visible Light 11h 57m
Length of Day
11h 08m
New Moon, 1% of the Moon is Illuminated
Oct 27
New Moon
Nov 2
First Quarter
Nov 10
Full
Nov 18
Last Quarter
Nov 25
New

Hourly Weather History & Observations

Time (CDT) Temp. Heat Index Dew Point Humidity Pressure Visibility Wind Dir Wind Speed Gust Speed Precip Events Conditions
12:53 AM 69.8 °F - 62.6 °F 78% 29.85 in 10.0 mi SSE 8.1 mph - N/A   Clear
1:53 AM 69.1 °F - 63.0 °F 81% 29.79 in 10.0 mi South 8.1 mph - N/A   Clear
2:53 AM 69.8 °F - 62.6 °F 78% 29.84 in 10.0 mi South 5.8 mph - N/A   Clear
3:53 AM 68.0 °F - 64.0 °F 87% 29.78 in 10.0 mi SSE 6.9 mph - N/A   Clear
4:53 AM 66.9 °F - 63.0 °F 87% 29.77 in 10.0 mi SSE 5.8 mph - N/A   Clear
5:40 AM 66.2 °F - 62.6 °F 88% 29.81 in 10.0 mi SE 5.8 mph - N/A   Mostly Cloudy
5:53 AM 66.0 °F - 63.0 °F 90% 29.76 in 10.0 mi SE 3.5 mph - N/A   Mostly Cloudy
6:35 AM 64.4 °F - 62.6 °F 94% 29.81 in 10.0 mi ESE 5.8 mph - N/A   Scattered Clouds
6:53 AM 66.0 °F - 63.0 °F 90% 29.77 in 10.0 mi NE 3.5 mph - N/A   Partly Cloudy
7:02 AM 66.2 °F - 64.4 °F 94% 29.83 in 10.0 mi NE 4.6 mph - N/A   Mostly Cloudy
7:45 AM 68.0 °F - 64.4 °F 88% 29.86 in 10.0 mi NNE 9.2 mph - N/A   Overcast
7:53 AM 68.0 °F - 64.0 °F 87% 29.82 in 10.0 mi NE 6.9 mph - N/A   Overcast
8:24 AM 69.8 °F - 64.4 °F 83% 29.87 in 10.0 mi East 3.5 mph - N/A   Overcast
8:53 AM 70.0 °F - 64.9 °F 84% 29.83 in 10.0 mi East 6.9 mph - N/A   Overcast
9:53 AM 71.1 °F - 64.9 °F 81% 29.84 in 10.0 mi ESE 9.2 mph - N/A   Overcast
10:53 AM 73.9 °F - 64.9 °F 73% 29.85 in 10.0 mi South 12.7 mph - N/A   Overcast
11:53 AM 77.0 °F - 64.0 °F 64% 29.82 in 10.0 mi SSE 13.8 mph - N/A   Mostly Cloudy
12:53 PM 79.0 °F - 62.1 °F 56% 29.82 in 10.0 mi SSE 10.4 mph - N/A   Mostly Cloudy
1:53 PM 82.0 °F 82.0 °F 57.9 °F 44% 29.80 in 10.0 mi SSE 8.1 mph - N/A   Mostly Cloudy
2:53 PM 84.0 °F 82.6 °F 54.0 °F 35% 29.78 in 10.0 mi SSE 5.8 mph - N/A   Scattered Clouds
3:53 PM 82.9 °F 81.8 °F 53.1 °F 36% 29.77 in 10.0 mi South 5.8 mph - N/A   Mostly Cloudy
4:30 PM 84.2 °F 83.0 °F 55.4 °F 37% 29.83 in 10.0 mi North 15.0 mph 18.4 mph N/A   Scattered Clouds
4:48 PM 78.8 °F - 57.2 °F 47% 29.84 in 10.0 mi North 19.6 mph 25.3 mph N/A   Mostly Cloudy
4:53 PM 75.9 °F - 54.0 °F 46% 29.80 in 10.0 mi North 23.0 mph 28.8 mph N/A   Scattered Clouds
5:53 PM 68.0 °F - 48.0 °F 49% 29.86 in 10.0 mi North 24.2 mph 32.2 mph N/A   Partly Cloudy
6:53 PM 61.0 °F - 46.9 °F 60% 29.92 in 10.0 mi North 26.5 mph 33.4 mph N/A   Scattered Clouds
7:53 PM 57.0 °F - 46.0 °F 67% 29.96 in 10.0 mi North 23.0 mph 32.2 mph N/A   Partly Cloudy
8:53 PM 54.0 °F - 44.1 °F 69% 30.00 in 10.0 mi North 23.0 mph 31.1 mph N/A   Partly Cloudy
9:53 PM 54.0 °F - 43.0 °F 66% 30.02 in 10.0 mi North 19.6 mph 26.5 mph N/A   Mostly Cloudy
10:53 PM 53.6 °F - 42.8 °F 67% 30.07 in 10.0 mi North 12.7 mph 21.9 mph N/A   Overcast
11:53 PM 53.1 °F - 42.1 °F 66% 30.05 in 10.0 mi North 20.7 mph 28.8 mph N/A   Mostly Cloudy